| Station | Date | Time | Temp (°F) | RH (%) | Dew Pt (°F) | Wind Spd (mph) | Wind Dir (°) | Wind Gust (mph) | Latest Rain (In) | Daily Rain (In) | Daily Max Temp (°F) | Daily Min Temp (°F) |
|---|---|---|---|---|---|---|---|---|---|---|---|---|
| Dollarhide 17B Remote | 5/4/26 | 0530 | 45.2 6.1 | 99 5 | 45.0 4.7 | - | - | - | - | - | 50.1 1.2 | 44.2 4.0 |
| Dollarhide 18A Remote | 5/4/26 | 0530 | 43.1 8.0 | 99 7 | 42.7 5.9 | - | - | - | - | - | 48.4 2.8 | 42.8 7.5 |
| Dollarhide 1AS Remote | 5/4/26 | 0530 | 45.0 6.6 | 94 4 | 43.4 5.5 | 0.0 3.7 | N | 0 | 0.0 7.2 | - | - | 50.4 1.4 | 45.0 5.6 |
| Angwin | 5/4/26 | 0530 | 45.0 0.4 | 100 0 | 45.0 0.3 | 2.2 0.3 | W | 276 | 9.7 4.0 | 0.00 | 0.00 | 46.4 6.2 | 44.8 0.5 |
| Lower Angwin (Pioneer) | 5/4/26 | 0530 | 46.3 0.5 | - | - | 2.3 1.3 | WSW | 248 | 6.1 2.8 | - | - | 46.8 0.7 | 44.0 2.6 |
| Lower Chiles Valley (Brown) | 5/4/26 | 0530 | 44.1 5.6 | 93 1 | 42.2 5.3 | 0.7 5.3 | SSE | 152 | 2.2 9.3 | 0.00 | 0.00 | 48.6 2.5 | 43.5 6.2 |
| Deer Park | 5/4/26 | 0530 | 48.3 2.7 | 92 4 | 46.1 1.4 | 1.9 0.0 | NNW | 337 | 3.8 0.1 | 0.00 | 0.00 | 50.3 1.2 | 46.6 4.2 |
| Moss Creek Vineyard/Reservior | 5/4/26 | 0445 | 45.2 4.9 | 94 4 | 43.6 3.7 | - | - | - | 0.00 | 0.00 | 49.0 1.4 | 44.8 4.6 |
| Montesol | 5/4/26 | 0530 | 46.4 0.9 | - | - | - | - | - | 0.00 | 0.00 | 46.8 0.5 | 41.4 3.4 |
| Dollarhide Base | 5/4/26 | 0530 | 48.2 3.0 | 98 4 | 47.5 1.9 | 1.5 3.2 | WNW | 282 | 2.1 6.7 | 0.00 | 0.00 | 52.2 0.6 | 47.7 2.6 |
| Pope Valley (Weeks Lake) | 5/4/26 | 0530 | 43.7 5.1 | 100 0 | 43.6 5.1 | 0.2 0.7 | ENE | 76 | 1.3 1.5 | 0.00 | 0.00 | 45.6 3.4 | 41.3 4.5 |
| Max | 48.3 | 100 | 47.5 | 2.3 | - | 9.7 | 0.00 | 0.00 | 52.2 | 47.7 | ||
| Avg | 45.5 | 96 | 44.4 | 1.3 | - | 3.6 | 0.00 | - | - | - | ||
| Min | 43.1 | 92 | 42.2 | 0.0 | - | 0.0 | 0.00 | 0.00 | 45.6 | 41.3 |
| Station | Date | Time | Temp (°F) | RH (%) | Dew Pt (°F) | Wind Spd (mph) | Wind Dir (°) | Wind Gust (mph) | Latest Rain (In) | Daily Rain (In) | Daily Max Temp (°F) | Daily Min Temp (°F) |
|---|---|---|---|---|---|---|---|---|---|---|---|---|
| Calistoga-North | 5/4/26 | 0515 | 50.8 2.6 | 93 5 | 48.9 1.0 | - | - | - | 0.00 | 0.00 | 51.6 32.1 | 48.3 2.7 |
| Stags Leap Dist (Chimney Rock) | 5/4/26 | 0530 | 43.7 9.8 | 98 10 | 43.2 7.0 | 0.8 0.3 | SE | 135 | 1.7 0.7 | 0.00 | 0.00 | 49.4 4.5 | 43.1 9.7 |
| Diamond Mtn (McEachran) | 5/4/26 | 0530 | 48.4 2.8 | 92 5 | 46.4 1.4 | - | - | - | - | - | 51.1 0.9 | 47.4 3.8 |
| Diamond Mtn (Schramsberg) | 5/4/26 | 0530 | 48.5 1.6 | 93 3 | 46.5 0.7 | - | - | - | 0.00 | 0.00 | 49.2 1.5 | 47.5 2.5 |
| Stags Leap Dist (Silverado Vineyards) | 5/4/26 | 0530 | 44.2 8.4 | 94 9 | 42.4 5.6 | 0.3 2.2 | NW | 325 | 1.4 2.8 | 0.00 | 0.00 | 50.3 2.6 | 43.8 7.6 |
| Oak Knoll-East (Ranch 53) | 5/4/26 | 0530 | 44.1 9.5 | 93 10 | 42.2 6.2 | 0.0 0.3 | N | 0 | 0.0 2.0 | 0.00 | 0.00 | 50.4 3.5 | 43.8 7.9 |
| Rutherford-North (Mee Ln) | 5/4/26 | 0530 | 42.4 11.0 | 94 12 | 40.8 7.1 | 0.7 0.8 | WNW | 301 | 2.0 0.9 | 0.00 | 0.00 | 48.9 4.5 | 41.8 10.4 |
| Frisinger Napa-NW | 5/4/26 | 0530 | 45.7 8.5 | 94 15 | 44.1 3.9 | 1.4 0.9 | NW | 314 | 3.1 1.5 | 0.00 | 0.00 | 49.3 5.0 | 44.8 6.9 |
| Napa-North (Ranch 29) | 5/4/26 | 0530 | 45.7 8.4 | 100 20 | 45.7 2.2 | 0.0 2.6 | ENE | 63 | 0.5 4.8 | 0.00 | 0.00 | 50.0 4.3 | 44.6 8.5 |
| St. Helena (NVV Office) | 5/4/26 | 0530 | 46.2 7.8 | - | - | 0.1 0.8 | S | 185 | 0.9 3.5 | 0.00 | 0.00 | 52.8 1.3 | 46.1 7.4 |
| Crossroads Ranch | 5/4/26 | 0530 | 44.0 9.6 | 92 9 | 42.0 6.8 | 0.9 2.2 | NNW | 346 | 3.3 1.8 | 0.00 | 0.00 | 50.7 3.0 | 44.0 8.7 |
| Oakville | 5/4/26 | 0530 | 44.5 9.3 | 96 14 | 43.4 5.0 | 1.1 1.1 | NNW | 332 | 3.1 1.3 | 0.00 | 0.00 | 50.2 3.7 | 44.2 8.3 |
| OV561-East | 5/4/26 | 0530 | 44.4 9.3 | - | - | - | - | - | - | - | 51.0 2.9 | 44.2 8.7 |
| OV518-West | 5/4/26 | 0530 | 45.0 8.8 | - | - | - | - | - | - | - | 50.0 4.1 | 44.2 8.5 |
| Napa-NW (Ranch 54) | 5/4/26 | 0530 | 45.4 9.0 | 93 16 | 43.5 3.8 | 0.2 0.4 | W | 259 | 1.4 0.9 | 0.00 | 0.00 | 49.4 5.2 | 45.3 6.5 |
| Calistoga (Ranch 78) | 5/4/26 | 0530 | 49.1 4.0 | 91 10 | 46.7 0.8 | 0.2 2.3 | S | 173 | 1.1 4.7 | 0.00 | 0.00 | 50.4 3.0 | 46.5 6.4 |
| Yountville-SE (Ranch 85) | 5/4/26 | 0530 | 45.4 8.4 | 96 10 | 44.3 5.2 | 0.1 0.9 | NE | 50 | 0.9 0.8 | 0.00 | 0.00 | 50.9 2.9 | 44.8 7.9 |
| Yountville-South (Ranch 87) | 5/4/26 | 0530 | 43.8 9.7 | 100 12 | 43.7 6.1 | 0.6 0.8 | ENE | 63 | 1.7 0.7 | 0.00 | 0.00 | 49.7 4.0 | 43.5 7.8 |
| Rutherford Hill Estate | 5/4/26 | 0530 | 47.5 4.5 | 93 6 | 45.5 2.8 | 0.8 0.1 | ENE | 74 | 1.8 0.9 | 0.00 | 0.00 | 50.8 1.4 | 47.4 3.9 |
| Rutherford (STS) | 5/4/26 | 0530 | 45.1 8.3 | 90 3 | 42.4 7.2 | 1.6 0.8 | WNW | 284 | 3.2 0.4 | 0.00 | 0.00 | 49.7 4.0 | 42.9 9.6 |
| Borreo (Soda Canyon) | 5/4/26 | 0530 | 41.7 8.6 | 95 3 | 40.4 7.6 | 0.8 0.2 | NNW | 333 | 2.8 0.8 | 0.00 | 0.00 | 46.5 4.3 | 41.6 6.7 |
| Oakville-NE (Ranch 88) | 5/4/26 | 0530 | 42.8 10.8 | 91 11 | 40.4 7.2 | 0.1 1.5 | ENE | 59 | 1.9 3.4 | 0.00 | 0.00 | 49.2 4.5 | 42.6 9.8 |
| Soda Canyon | 5/4/26 | 0530 | 40.9 12.3 | 92 6 | 38.6 10.3 | 0.1 0.1 | NNE | 12 | 1.2 1.2 | 0.00 | 0.00 | 47.0 6.7 | 40.5 11.6 |
| Silver Oak OV | 5/4/26 | 0530 | 43.6 10.2 | 95 11 | 42.1 7.0 | 0.7 1.5 | NNW | 343 | 2.8 1.7 | 0.00 | 0.00 | 51.6 2.3 | 43.3 9.3 |
| Tiara Fria (East St. Helena) | 5/4/26 | 0530 | 46.3 8.0 | 93 12 | 44.4 4.0 | 0.5 0.4 | SE | 132 | 1.8 0.7 | 0.00 | 0.00 | 51.7 2.6 | 46.2 7.1 |
| To Kalon Remote (TKKE) | 5/4/26 | 0530 | 44.1 10.1 | - | - | - | - | - | - | - | 49.6 4.8 | 43.7 9.4 |
| To Kalon | 5/4/26 | 0530 | 44.4 9.3 | 97 15 | 43.6 4.8 | 2.0 0.2 | WNW | 285 | 3.6 1.4 | 0.00 | 0.00 | 50.3 3.4 | 44.0 8.3 |
| To Kalon Remote (TKN5) | 5/4/26 | 0530 | 44.2 10.1 | - | - | - | - | - | - | - | 52.8 1.7 | 44.0 9.0 |
| St. Helena-North | 5/4/26 | 0530 | 46.9 6.7 | 88 12 | 43.6 2.7 | 0.3 0.8 | WNW | 296 | 1.3 2.0 | 0.00 | 0.00 | 52.0 2.5 | 46.4 6.9 |
| Twomey Calistoga | 5/4/26 | 0530 | 48.8 4.3 | 98 16 | 48.2 0.3 | 0.0 2.5 | SSW | 192 | 0.9 5.5 | 0.00 | 0.00 | 48.8 4.8 | 45.3 7.7 |
| Wappo Hill Floor | 5/4/26 | 0530 | 42.7 10.7 | 100 16 | 42.7 6.0 | 0.4 1.1 | W | 276 | 2.5 0.1 | 0.00 | 0.00 | 49.0 4.6 | 42.3 9.9 |
| Yountville (Ranch 67) | 5/4/26 | 0530 | 43.2 9.5 | 94 11 | 41.8 6.1 | 1.2 0.6 | NNW | 335 | 3.4 0.1 | 0.00 | 0.00 | 49.8 3.3 | 43.2 8.7 |
| Max | 50.8 | 100 | 48.9 | 2.0 | - | 3.6 | 0.00 | 0.00 | 52.8 | 48.3 | ||
| Avg | 45.1 | 94 | 43.6 | 0.6 | - | 1.9 | 0.00 | - | - | - | ||
| Min | 40.9 | 88 | 38.6 | 0.0 | - | 0.0 | 0.00 | 0.00 | 46.5 | 40.5 |
| Station | Date | Time | Temp (°F) | RH (%) | Dew Pt (°F) | Wind Spd (mph) | Wind Dir (°) | Wind Gust (mph) | Latest Rain (In) | Daily Rain (In) | Daily Max Temp (°F) | Daily Min Temp (°F) |
|---|---|---|---|---|---|---|---|---|---|---|---|---|
| Carneros (Milton Rd) | 5/4/26 | 0530 | 43.8 9.9 | 92 8 | 41.6 7.5 | - | - | - | 0.00 | 0.00 | 52.4 1.5 | 43.2 10.1 |
| Carneros Lower (Ranch 81) | 5/4/26 | 0530 | 44.5 8.4 | 93 5 | 42.8 6.9 | 0.7 0.1 | N | 359 | 1.9 0.8 | 0.00 | 0.00 | 51.7 2.1 | 43.6 9.3 |
| Carneros Upper (Ranch 81) | 5/4/26 | 0530 | 47.8 4.4 | 100 12 | 47.8 1.0 | 1.4 4.3 | WSW | 244 | 3.9 4.3 | - | - | 52.2 0.5 | 47.8 4.3 |
| Carneros (Mitsuko) | 5/4/26 | 0530 | 42.7 10.5 | - | - | - | - | - | - | - | 50.3 3.3 | 40.9 12.2 |
| Mount George (Napa East) | 5/4/26 | 0530 | 45.3 15.6 | 96 9 | 44.3 12.7 | 0.0 1.1 | N | 0 | 0.0 4.5 | 0.00 | 0.00 | 66.2 5.3 | 45.3 13.2 |
| Napa-East (Palmaz 300') | 5/4/26 | 0530 | 45.2 7.8 | 97 13 | 44.4 4.0 | 0.8 0.3 | ESE | 106 | 2.3 1.6 | 0.00 | 0.00 | 49.6 3.5 | 45.0 7.7 |
| Napa-East (Palmaz 1200') | 5/4/26 | 0530 | 42.2 6.2 | 75 0 | 34.9 6.0 | 1.4 0.6 | ESE | 117 | 2.8 2.3 | - | - | 47.1 1.7 | 42.1 6.3 |
| Napa-East (Palmaz 1400') | 5/4/26 | 0530 | 44.8 2.3 | 100 0 | 44.8 2.4 | 0.2 3.0 | S | 178 | 1.7 7.7 | 0.00 | 0.00 | 47.4 0.2 | 44.5 2.5 |
| Dealy Lane (Ranch 80) | 5/4/26 | 0530 | 44.4 8.7 | 95 10 | 43.0 5.7 | 0.3 0.9 | NW | 322 | 1.5 3.7 | 0.00 | 0.00 | 51.3 2.0 | 43.8 9.2 |
| Suscol Mtn (Ranch 93) | 5/4/26 | 0530 | 47.8 1.5 | 97 3 | 46.9 0.8 | 1.0 8.7 | NW | 325 | 2.7 10.4 | 0.00 | 0.00 | 49.1 0.4 | 47.8 1.5 |
| Carneros (Saintsbury) | 5/4/26 | 0530 | 44.3 8.1 | 100 13 | 44.2 4.3 | 0.8 1.4 | W | 275 | 2.4 1.8 | 0.00 | 0.00 | 50.2 2.5 | 44.0 8.2 |
| Sugarloaf West | 5/4/26 | 0530 | 48.1 5.7 | 96 10 | 47.0 2.7 | 2.6 1.0 | E | 99 | 3.8 0.1 | 0.00 | 0.00 | 50.1 3.9 | 45.8 7.9 |
| Suscol Upper (Ranch 92) | 5/4/26 | 0530 | 48.2 1.9 | 3 90 | -29.3 77.4 | 0.0 3.1 | N | 0 | 0.0 7.3 | 0.00 | 0.00 | 49.7 0.7 | 48.0 2.0 |
| Stanly (Ranch 45) | 5/4/26 | 0530 | 45.8 7.8 | 93 10 | 43.9 4.8 | 0.2 3.0 | NNE | 22 | 1.2 4.1 | 0.00 | 0.00 | 51.8 2.1 | 43.8 9.3 |
| Suscol Lower (Ranch 35) | 5/4/26 | 0530 | 46.4 6.5 | 100 15 | 46.4 2.1 | 2.7 0.5 | E | 93 | 4.1 0.4 | 0.00 | 0.00 | 49.2 3.9 | 45.9 7.0 |
| Napa-South (Toyon Farms) | 5/4/26 | 0530 | 46.9 6.5 | 99 9 | 46.6 4.0 | 0.0 0.6 | N | 0 | 0.0 2.7 | 0.00 | 0.00 | 50.0 3.8 | 46.7 6.3 |
| Toyon Remote 1 | 5/4/26 | 0530 | 40.3 12.5 | - | - | - | - | - | - | - | 46.1 6.9 | 39.4 12.7 |
| Toyon Remote 2 | 5/4/26 | 0530 | 43.6 10.3 | - | - | - | - | - | - | - | 48.6 5.6 | 42.6 10.9 |
| Toyon Remote 3 | 5/4/26 | 0530 | 43.3 10.3 | - | - | - | - | - | - | - | 48.0 5.8 | 43.0 10.2 |
| Napa-West Lower (Truchard) | 5/4/26 | 0530 | 41.2 11.8 | 94 9 | 39.5 9.0 | - | - | - | - | - | 46.0 7.1 | 40.8 10.1 |
| Napa-West Upper (Truchard) | 5/4/26 | 0530 | 47.1 5.2 | 0 90 | -68.8 118.2 | 0.0 4.5 | N | 0 | 0.0 7.1 | 0.00 | 0.00 | 50.4 2.2 | 46.9 4.5 |
| Mt. Veeder | 5/4/26 | 0530 | 46.6 0.7 | 89 10 | 43.4 3.5 | 0.7 0.2 | NW | 320 | 2.3 0.7 | 0.00 | 0.00 | 47.6 1.0 | 46.2 1.0 |
| Wooden Valley | 5/4/26 | 0530 | 44.5 6.2 | 94 10 | 43.0 3.1 | 1.4 2.5 | NNE | 29 | 4.0 6.6 | 0.00 | 0.00 | 51.2 0.1 | 43.6 6.2 |
| Max | 48.2 | 100 | 47.8 | 2.7 | - | 4.1 | 0.00 | 0.00 | 66.2 | 48.0 | ||
| Avg | 45.0 | 85 | 34.0 | 0.8 | - | 2.0 | 0.00 | - | - | - | ||
| Min | 40.3 | 0 | -68.8 | 0.0 | - | 0.0 | 0.00 | 0.00 | 46.0 | 39.4 |